Wind_Speed
48 49 49 49 48 48 48 49 48 48 49 48 49 48 48 49 50 50 50 50 50 50 49 48 48 48 48 47 46 47 47 47 47 47 46 46 45 44
46 47 48 48 48 48 47 48 48 48 49 49 50 50 50 50 51 51 51 51 52 52 52 51 51 50 50 50 49 49 49 49 49 48 48 47 46 45
47 47 47 47 48 48 48 48 48 48 49 50 50 50 50 49 49 51 51 52 52 52 52 52 52 52 51 51 51 51 52 51 52 51 50 48 47 46
45 46 46 46 47 48 48 48 48 49 50 51 52 52 51 50 50 50 52 53 53 54 53 54 53 53 53 53 53 53 53 53 52 52 51 49 48 48
43 44 45 45 46 48 49 49 49 50 50 51 52 52 52 52 52 51 52 53 54 54 54 54 54 53 53 53 54 54 55 54 53 51 50 48 48 48
40 41 43 44 45 47 48 49 49 50 50 51 51 52 52 52 52 52 53 54 54 54 55 55 55 55 54 54 54 55 55 54 52 51 49 49 49 49
39 40 42 44 45 46 48 48 49 49 50 51 51 51 52 53 53 53 53 53 53 54 55 55 55 55 55 55 54 54 54 53 52 52 51 51 50 49
37 39 41 43 44 45 47 48 49 49 49 50 50 50 50 51 51 52 53 53 52 53 54 54 55 55 55 55 54 54 53 53 52 52 52 52 51 51
37 38 39 41 43 44 46 46 48 49 50 50 50 50 50 50 51 51 52 52 53 53 54 53 53 53 53 54 54 54 53 52 52 53 52 52 52 52
37 38 38 40 42 43 45 46 48 49 49 49 50 51 51 52 52 53 52 53 53 54 53 52 51 52 52 53 53 53 53 53 53 53 52 52 53 53
36 36 38 39 40 42 44 45 47 47 48 48 49 50 51 51 52 52 52 52 52 52 53 53 52 52 51 52 52 53 53 54 54 54 53 53 53 54
33 35 36 37 38 40 41 43 45 45 45 46 47 48 49 50 51 52 52 52 52 51 51 52 52 51 50 50 51 52 52 52 52 51 52 53 54 54
30 32 33 34 36 38 39 41 42 43 44 45 46 47 48 49 50 51 51 52 52 51 51 51 51 51 50 49 49 50 50 50 49 50 51 51 51 51
29 30 32 33 35 37 38 39 40 42 43 44 45 46 47 48 49 50 50 51 51 51 50 51 50 50 50 49 47 46 47 47 48 48 48 48 47 47
30 31 33 34 35 36 37 38 38 39 41 42 43 44 45 46 47 48 48 49 49 49 49 50 50 49 49 47 46 46 45 46 47 47 46 45 45 44
31 32 33 34 35 35 36 37 38 39 40 40 41 42 43 44 45 46 47 47 47 48 48 49 49 49 47 47 46 45 44 45 45 44 43 42 42 42
32 33 33 34 35 35 36 37 38 39 39 40 40 41 42 43 44 45 46 46 46 46 47 47 47 47 47 46 45 44 44 44 43 42 41 40 40 40
33 33 34 35 36 36 37 38 39 39 39 39 40 41 41 41 42 43 43 44 44 45 45 45 46 46 46 46 45 43 43 42 42 41 40 40 39 38
34 35 35 36 37 38 38 39 39 39 38 39 39 40 41 42 42 43 43 43 44 44 44 44 44 45 45 44 43 43 42 41 41 40 39 39 39 38
34 35 36 37 38 39 39 39 39 39 39 40 40 41 41 42 42 42 43 43 43 43 43 43 43 43 43 43 42 41 41 40 40 40 39 38 38 37
36 37 38 38 39 40 40 40 40 39 40 41 41 41 42 42 42 43 43 43 43 43 42 42 42 42 41 41 40 39 39 39 38 38 38 37 37 37
37 38 39 40 40 40 41 41 40 40 41 42 42 42 42 43 43 42 42 42 41 41 40 39 39 39 39 38 37 36 36 36 36 36 37 37 36 37
39 39 39 40 40 41 41 41 41 41 42 42 42 42 43 43 42 42 41 40 40 39 38 38 37 37 37 36 36 35 35 34 35 35 35 35 36 36
Wind_Direction
254 253 254 254 255 256 258 259 260 260 259 260 260 262 263 264 264 265 264 264 265 266 267 268 269 269 269 270 272 273 273 274 275 277 277 277 277 277
254 254 254 255 255 256 258 259 260 261 260 260 261 262 263 265 266 266 266 265 265 266 267 269 270 270 270 270 271 273 274 274 275 277 277 276 276 274
254 254 254 255 256 256 257 259 260 261 262 262 262 264 264 265 266 267 266 266 265 266 267 268 268 270 271 272 273 275 275 275 275 276 276 274 273 272
255 255 255 256 256 256 257 258 259 260 262 262 262 263 265 266 267 267 267 266 265 266 267 268 268 269 271 272 273 275 275 275 275 275 274 272 271 270
257 256 256 256 257 256 257 258 259 261 263 263 263 265 266 266 267 268 268 268 267 267 267 268 269 269 271 271 272 273 274 275 274 273 272 270 269 269
258 257 257 257 258 257 258 259 260 262 263 264 264 265 266 267 267 268 269 269 268 267 267 268 268 269 270 270 271 273 273 274 273 271 269 268 268 267
259 259 259 259 259 258 259 260 261 262 264 265 265 266 267 268 268 269 269 269 268 268 268 269 269 270 270 270 271 272 272 272 270 270 269 268 268 267
262 262 262 260 260 260 261 261 262 263 265 266 266 267 268 270 269 269 269 269 269 269 269 269 270 270 270 269 270 272 272 271 270 268 268 266 266 265
265 265 264 262 262 262 263 263 263 264 265 266 266 267 269 270 270 271 270 270 270 270 269 270 270 270 271 271 271 271 271 270 271 269 267 265 264 264
266 266 266 266 266 266 266 265 265 266 266 267 267 267 269 270 271 271 271 271 271 271 271 271 271 271 272 272 271 270 269 270 270 270 267 265 264 263
267 268 269 268 268 269 268 267 266 266 267 268 269 269 270 272 272 272 273 273 272 272 271 272 272 272 271 271 271 270 269 269 269 269 267 265 264 263
271 270 270 271 272 272 272 270 268 268 268 269 270 271 272 272 273 274 274 273 273 273 272 272 272 272 270 270 270 270 269 269 269 268 267 266 266 265
274 273 273 273 275 276 275 273 272 271 271 272 273 273 273 273 273 274 274 274 273 273 273 272 272 272 272 270 269 269 269 269 269 269 269 268 267 265
276 276 277 276 277 278 277 276 275 274 274 274 274 274 275 275 275 276 276 275 275 274 274 273 273 273 272 271 270 269 269 269 269 269 269 268 265 263
279 279 279 280 280 281 280 279 278 277 277 277 276 276 276 277 277 277 277 277 276 275 275 274 274 274 273 272 272 270 269 269 269 270 268 265 264 262
282 282 282 282 283 283 283 282 281 280 279 279 278 278 279 279 279 279 279 278 277 277 276 275 273 273 273 272 272 269 269 270 269 269 266 262 261 261
285 284 283 282 283 285 285 284 284 282 281 281 281 281 281 281 281 282 281 280 278 277 276 274 273 272 272 271 270 269 269 269 268 266 263 261 259 257
285 284 283 283 284 285 285 286 285 283 283 283 283 283 283 284 284 285 284 282 280 279 277 275 273 271 271 272 272 270 269 267 265 263 261 258 256 252
286 286 285 285 285 286 286 286 285 284 283 284 285 285 285 285 285 285 285 284 281 280 278 277 274 271 271 270 270 270 268 265 261 259 258 256 252 248
287 288 288 287 287 288 287 286 286 285 283 284 285 285 285 286 285 285 284 283 281 280 278 277 275 273 271 270 269 267 266 262 259 258 258 255 251 247
289 289 289 290 290 289 287 286 286 285 285 286 286 287 287 286 286 285 284 284 282 280 279 277 275 272 271 270 268 266 262 259 258 257 256 253 249 245
290 291 291 291 291 290 288 287 286 286 286 287 288 288 287 286 286 285 285 285 283 281 278 276 274 272 269 268 266 264 259 257 256 255 254 250 247 245
290 291 292 292 292 291 290 289 288 288 288 289 289 288 287 287 286 286 287 285 283 281 278 274 272 271 269 266 263 260 257 256 255 253 251 248 246 245
Height
5678 5681 5683 5685 5687 5689 5690 5692 5693 5695 5698 5699 5700 5700 5700 5700 5700 5701 5702 5703 5704 5705 5705 5706 5706 5706 5706 5706 5706 5705 5705 5704 5703 5702 5701 5700 5699 5699
5666 5668 5670 5673 5675 5677 5678 5679 5681 5682 5684 5687 5687 5688 5688 5688 5687 5688 5688 5689 5690 5691 5692 5693 5693 5693 5693 5693 5693 5692 5692 5691 5690 5689 5688 5687 5687 5686
5653 5655 5658 5660 5662 5664 5666 5667 5668 5669 5671 5673 5674 5674 5675 5676 5675 5675 5675 5675 5677 5677 5678 5678 5679 5679 5679 5679 5678 5678 5677 5676 5675 5674 5673 5673 5673 5673
5641 5643 5645 5647 5649 5651 5653 5655 5656 5657 5658 5660 5660 5661 5662 5662 5662 5662 5662 5662 5663 5663 5664 5664 5664 5664 5664 5664 5663 5663 5662 5661 5660 5659 5659 5659 5659 5658
5629 5630 5633 5635 5637 5638 5640 5642 5643 5644 5645 5646 5647 5648 5648 5649 5649 5649 5648 5648 5648 5649 5649 5649 5649 5649 5649 5649 5648 5648 5647 5646 5645 5644 5643 5644 5644 5644
5618 5619 5621 5622 5624 5626 5627 5629 5629 5630 5631 5632 5634 5634 5635 5635 5635 5635 5635 5634 5633 5634 5634 5634 5634 5634 5634 5634 5633 5632 5631 5630 5629 5628 5628 5629 5630 5630
5607 5608 5609 5611 5612 5613 5614 5615 5616 5617 5618 5619 5620 5620 5621 5620 5621 5621 5620 5619 5619 5619 5619 5618 5618 5618 5617 5617 5616 5616 5615 5614 5613 5613 5613 5614 5614 5615
5596 5597 5598 5599 5599 5600 5601 5602 5603 5603 5604 5605 5605 5606 5607 5606 5606 5605 5604 5604 5605 5605 5603 5603 5601 5601 5601 5600 5600 5599 5598 5597 5597 5597 5597 5597 5598 5599
5585 5586 5586 5586 5587 5587 5588 5588 5589 5589 5590 5590 5591 5592 5592 5592 5591 5590 5589 5588 5588 5588 5586 5587 5586 5585 5584 5583 5582 5582 5581 5580 5580 5580 5580 5580 5581 5583
5574 5574 5574 5574 5574 5574 5574 5574 5575 5575 5575 5575 5576 5576 5576 5575 5575 5574 5573 5572 5572 5571 5570 5570 5570 5569 5568 5566 5565 5564 5564 5563 5563 5562 5563 5563 5564 5565
5563 5562 5562 5562 5562 5561 5561 5560 5560 5560 5560 5560 5560 5560 5560 5559 5558 5558 5557 5556 5556 5556 5554 5553 5554 5553 5552 5551 5549 5547 5547 5546 5545 5545 5545 5545 5546 5547
5551 5550 5550 5549 5549 5548 5547 5547 5547 5547 5546 5546 5545 5545 5544 5544 5542 5541 5540 5539 5539 5540 5539 5537 5536 5535 5536 5536 5534 5531 5530 5529 5529 5528 5528 5527 5527 5527
5541 5540 5539 5538 5537 5536 5535 5534 5533 5533 5532 5532 5531 5530 5529 5528 5527 5525 5524 5523 5522 5522 5522 5521 5520 5518 5518 5519 5519 5516 5514 5513 5512 5512 5510 5510 5508 5508
5532 5531 5529 5528 5526 5525 5523 5522 5521 5520 5519 5518 5517 5516 5515 5513 5512 5510 5508 5507 5506 5505 5505 5503 5503 5502 5501 5501 5502 5501 5499 5497 5496 5495 5494 5493 5492 5491
5523 5521 5519 5517 5515 5514 5512 5510 5508 5507 5506 5504 5503 5502 5500 5499 5497 5495 5493 5491 5490 5488 5487 5486 5486 5486 5485 5484 5485 5485 5484 5482 5480 5479 5478 5477 5477 5477
5513 5511 5509 5507 5504 5503 5501 5499 5496 5495 5493 5491 5490 5488 5486 5484 5482 5480 5478 5476 5474 5473 5470 5469 5469 5469 5468 5468 5467 5468 5467 5466 5465 5464 5464 5463 5463 5464
5502 5500 5498 5496 5494 5492 5490 5487 5485 5482 5480 5478 5476 5474 5472 5470 5468 5465 5463 5461 5459 5458 5456 5454 5453 5452 5452 5451 5451 5451 5451 5450 5450 5449 5450 5451 5451 5452
5492 5490 5488 5486 5483 5481 5478 5476 5473 5470 5468 5466 5464 5461 5459 5457 5454 5451 5448 5446 5444 5442 5440 5439 5438 5437 5437 5436 5435 5435 5435 5435 5436 5436 5436 5438 5440 5442
5482 5479 5477 5474 5472 5469 5467 5464 5461 5459 5456 5454 5451 5449 5446 5443 5441 5438 5435 5432 5429 5427 5425 5423 5422 5421 5422 5422 5422 5420 5420 5421 5422 5423 5424 5426 5429 5431
5471 5468 5466 5463 5460 5458 5455 5452 5449 5446 5444 5441 5439 5436 5433 5430 5427 5424 5421 5418 5415 5413 5410 5408 5407 5406 5406 5407 5408 5407 5406 5407 5409 5410 5412 5414 5417 5420
5460 5457 5455 5451 5448 5445 5442 5439 5437 5434 5432 5429 5426 5423 5420 5417 5413 5410 5407 5404 5401 5398 5396 5394 5393 5392 5392 5392 5394 5394 5394 5395 5396 5398 5400 5402 5405 5408
5449 5446 5443 5440 5436 5433 5430 5427 5424 5422 5419 5416 5413 5409 5406 5403 5400 5396 5393 5390 5387 5384 5382 5381 5380 5379 5379 5379 5381 5382 5383 5383 5384 5386 5388 5391 5394 5398
5438 5435 5431 5428 5424 5421 5418 5415 5412 5409 5405 5402 5399 5396 5392 5389 5386 5382 5379 5376 5374 5371 5370 5368 5367 5367 5367 5367 5369 5370 5371 5373 5374 5376 5379 5381 5384 5388